Regional Weather Roundup
Issued by NWS

Home | Current Version | Previous Version | Graphics & Text | Print | Product List | Glossary On
Versions: 1 2 3 4 5 6 7 8 9 10 11 12 13 14 15 16 17 18 19 20 21 22 23 24 25 26 27 28 29 30 31 32 33 34 35 36 37 38 39 40 41 42 43 44 45 46 47 48 49 50
000
ASUS45 KBOU 250307
RWRCO

WEATHER ROUNDUP FOR COLORADO
NATIONAL WEATHER SERVICE DENVER/BOULDER CO
900 PM MDT THU JUL 24 2014

NOTE: "FAIR" INDICATES FEW OR NO CLOUDS BELOW 12000 FEET WITH NO
SIGNIFICANT WEATHER AND/OR OBSTRUCTIONS TO VISIBILITY.

COZ001>005-013-030-031-250400-
...NORTHWEST COLORADO...

CITY           SKY/WX    TMP DP  RH WIND       PRES   REMARKS
CRAIG          PTCLDY    66  47  50 S8        30.15R
HAYDEN         PTCLDY    73  43  33 SW9       30.18R
MEEKER         MOCLDY    67  56  67 E6        30.21R
MOUNT WERNER   NOT AVBL
STEAMBOAT SPGS PTCLDY    73  53  49 NE6       30.21R
WALDEN         MOCLDY    70  46  43 S8        30.31R
$$

COZ006>008-011-250400-
...WEST CENTRAL VALLEYS...

CITY           SKY/WX    TMP DP  RH WIND       PRES   REMARKS
GRAND JUNCTION CLEAR     80  51  36 S20G32    30.06R
MONTROSE       PTCLDY    73  53  49 SE17      30.20S
EAGLE          MOCLDY    73  48  40 W10G16    30.24R
RIFLE          PTCLDY    77  50  38 E17       30.13R
DELTA          PTCLDY    76  56  49 NE3       30.15S
NUCLA          PTCLDY    73  54  49 SE9G18    30.25R THUNDER
$$

COZ017>023-064>068-250400-
...SOUTHWEST COLORADO...

CITY           SKY/WX    TMP DP  RH WIND       PRES   REMARKS
DURANGO        LGT RAIN  69  54  58 NW18G25   30.27R
CORTEZ         PTCLDY    78  51  38 S10       30.20R
PAGOSA SPRINGS CLOUDY    75  44  33 NW6       30.35R
TELLURIDE      TSTM      55  54  94 S3        30.51R
WOLF CREEK PAS NOT AVBL
$$

COZ009-010-012-014-032>034-037-058>063-250400-
...CENTRAL COLORADO...

CITY           SKY/WX    TMP DP  RH WIND       PRES   REMARKS
ASPEN          CLOUDY    63  54  72 S13G20    30.35F
BUENA VISTA    CLOUDY    63  54  74 S3        30.37F
COPPER MTN     CLOUDY    59  41  51 S13G18    30.68F
BERTHOUD PASS  FAIR      50  34  53 W12       30.71F
COTTONWOOD PAS CLOUDY    63  46  55 SE3       30.52S
GUNNISON       PTCLDY    63  48  59 CALM      30.40S
KREMMLING      PTCLDY    66  46  48 S9        30.29S
LEADVILLE      CLOUDY    59  43  55 NW8       30.50S
MONARCH PASS   CLOUDY    46  43  87 W18       30.78S
SALIDA         CLOUDY   N/A N/A N/A SE3       30.41F
SUNLIGHT       MOCLDY    55  46  71 CALM      30.59S
WILKERSON PASS CLOUDY    54  43  66 SW10G17   30.64S
$$

COZ069>075-250400-
...SAN LUIS VALLEY/SANGRE DE CRISTO MOUNTAINS...

CITY           SKY/WX    TMP DP  RH WIND       PRES   REMARKS
ALAMOSA        MOCLDY    67  48  50 N14       30.33R
LA VETA PASS   CLOUDY    63  41  45 SW6       30.50R
SAGUACHE       CLOUDY    61  55  82 N7        30.38F
$$

COZ035-036-038>040-250400-
...NORTHERN COLORADO FRONT RANGE...

CITY           SKY/WX    TMP DP  RH WIND       PRES   REMARKS
DENVER INTL AP CLOUDY    77  51  40 S22       30.10R
DMNS CITY PARK   N/A     76  52  43 SW17      30.10S
AURORA         MOCLDY    74  50  42 S21       30.12S
FRONT RANGE AP TSTM      75  57  53 S17G26    30.12R
ERIE MUNI ARPT CLOUDY    82  49  31 S20       30.06R
BOULDER MUN AP CLOUDY    84  50  30 SE9       30.06R
CENTENNIAL     CLOUDY    70  54  56 S18       30.14R
BROOMFIELD     MOCLDY    79  50  36 S18G26    30.12R
FORT COLLINS   MOCLDY    75  55  50 S6        30.04R
LONGMONT       MOCLDY    82  53  37 CALM      30.05R
$$

COZ041-046-047-076>085-087-088-250400-
...PIKES PEAK/PALMER DIVIDE AND SOUTHERN FOOTHILLS...

CITY           SKY/WX    TMP DP  RH WIND       PRES   REMARKS
COLO. SPRINGS  CLOUDY    74  50  42 W14G22    30.17F
A. F. ACADEMY  CLOUDY    63  59  87 N12       30.21R
ELLICOTT       CLOUDY    76  47  35 N22G36    30.13F
FALCON         CLOUDY    67  51  58 E7G15     30.22F
FORT CARSON    CLOUDY    73  53  48 NW16      30.13R
LIMON          LGT RAIN  71  57  61 W12       30.13R
MONUMENT HILL  CLOUDY    63  54  72 NE8       30.27S
TRINIDAD       MOCLDY    86  42  21 S15       30.09R
$$

COZ042>045-048>051-090-091-250400-
...NORTHEAST COLORADO...

CITY           SKY/WX    TMP DP  RH WIND       PRES   REMARKS
GREELEY ARPT   MOCLDY    75  59  57 S5        30.02R
AKRON          MOCLDY    78  52  40 S7        30.03R
BURLINGTON     CLOUDY    80  50  34 E7        29.96S
WRAY             N/A     78  54  43 N6        29.93R
STERLING       MOCLDY    73  68  83 SW6       29.95R
HOLYOKE        CLOUDY    73  64  73 CALM      29.92S
FORT MORGAN    MOCLDY    76  54  46 SE7       30.02R
$$

COZ086-089-092>099-250400-
...SOUTHEAST COLORADO...

CITY           SKY/WX    TMP DP  RH WIND       PRES   REMARKS
PUEBLO         CLOUDY    83  50  31 NW23G31   30.02R
LA JUNTA       MOCLDY    90  47  22 S10       29.93R
LAMAR          PTCLDY    90  39  16 S20G29    29.89R
SPRINGFIELD      N/A     82  44  26 S16       30.02R
$$



USA.gov is the U.S. government's official web portal to all federal, state and local government web resources and services.